Location: Batang Balui
(2.7000°N, 113.7833°E)
Time: 13:57:54
(UTC+00:00)

NOAA 15 - Visible Passes

Search period start: 21 March 2023 00:00
Search period end: 31 March 2023 00:00
Orbit: 797 x 811 km, 98.6° (Epoch: 21 March)

Date Brightness Start Highest point End Pass type
(mag) Time Alt. Az. Time Alt. Az. Time Alt. Az.
21 Mar 5.3 11:10:30 10° SE 11:15:11 32° ENE 11:19:51 10° NNE visible
21 Mar 7.3 12:51:29 10° SW 12:54:40 16° WSW 12:57:51 10° WNW visible
22 Mar 6.2 12:24:39 10° SSW 12:29:21 32° WSW 12:34:02 10° NW visible
23 Mar 4.9 11:58:45 10° S 12:04:00 66° WSW 12:09:15 10° NNW visible
24 Mar 4.6 11:33:26 10° SSE 11:38:40 62° ENE 11:43:54 10° N visible
25 Mar 5.3 11:08:44 10° SE 11:13:21 31° ENE 11:17:57 10° NNE visible
25 Mar 7.2 12:49:30 10° SW 12:52:50 17° WSW 12:56:11 10° WNW visible
26 Mar 6.1 12:22:45 10° SSW 12:27:30 34° WSW 12:32:15 10° NW visible
27 Mar 4.9 11:56:53 10° S 12:02:10 69° WSW 12:07:26 10° NNW visible
28 Mar 4.6 11:31:37 10° SSE 11:36:50 59° ENE 11:42:01 10° N visible
29 Mar 5.4 11:06:57 10° SE 11:11:31 29° ENE 11:16:02 10° NNE visible
29 Mar 7.1 12:47:30 10° SW 12:50:59 18° WSW 12:54:29 10° WNW visible
30 Mar 6.1 12:20:51 10° SSW 12:25:39 36° WSW 12:30:28 10° NW visible
